This demonstration page uses our WeatherBlox Daily Observations layout. Learn more.

Left ArrowRight Arrow

Hourly Observations for September 23, 2020

Temp ( °F °C ) Dew Point ( °F °C ) Humidity (%) Winds ( mph kmh ) Pressure ( in mb ) Visibility ( mi km ) Precip ( " mm )
12:59 am 00:59 Clear 59 15 50 10 72 72 WSW 6 9 30.04 1017 10 16 0.00 0.00
1:59 am 01:59 Clear 60 15.6 51 10.6 72 72 W 5 7 30.03 1017 10 16 0.00 0.00
2:59 am 02:59 Partly Cloudy 60 15.6 51 10.6 72 72 WSW 6 9 30.03 1017 10 16 0.00 0.00
3:59 am 03:59 Mostly Cloudy 59 15 51 10.6 75 75 WSW 5 7 30.02 1017 10 16 0.00 0.00
4:59 am 04:59 Mostly Cloudy 58 14.4 50 10 75 75 WSW 5 7 30.03 1017 10 16 0.00 0.00
5:59 am 05:59 Mostly Cloudy 59 15 51 10.6 75 75 WSW 3 6 30.02 1017 10 16 0.00 0.00
6:59 am 06:59 Partly Cloudy 59 15 52 11.1 78 78 WSW 5 7 30.03 1017 10 16 0.00 0.00
7:59 am 07:59 Mostly Cloudy 59 15 53 11.7 81 81 Calm 30.05 1018 10 16 0.00 0.00
8:59 am 08:59 Mostly Cloudy 64 17.8 50 10 60 60 NW 8 13 30.06 1018 10 16 0.00 0.00
9:59 am 09:59 Mostly Cloudy 68 20 51 10.6 55 55 NNW 7 11 30.06 1018 10 16 0.00 0.00
10:59 am 10:59 Mostly Cloudy 70 21.1 51 10.6 51 51 N 7 11 30.07 1018 10 16 0.00 0.00
11:59 am 11:59 Partly Cloudy 71 21.7 53 11.7 53 53 WNW 6 9 30.06 1018 10 16 0.00 0.00
12:59 pm 12:59 Sunny 72 22.2 52 11.1 50 50 W 6 9 30.05 1018 10 16 0.00 0.00
1:59 pm 13:59 Sunny 73 22.8 50 10 44 44 WSW 6 9 30.03 1017 10 16 0.00 0.00
2:59 pm 14:59 Partly Cloudy 74 23.3 49 9.4 41 41 W 10 17 30.01 1016 10 16 0.00 0.00
3:59 pm 15:59 Partly Cloudy 75 23.9 51 10.6 43 43 WNW 9 15 30.00 1016 10 16 0.00 0.00
4:59 pm 16:59 Partly Cloudy 74 23.3 50 10 43 43 W 6 9 29.99 1016 10 16 0.00 0.00
5:59 pm 17:59 Mostly Cloudy 72 22.2 51 10.6 48 48 WSW 5 7 29.99 1016 10 16 0.00 0.00
6:59 pm 18:59 Mostly Cloudy 66 18.9 54 12.2 65 65 SW 3 6 30.01 1016 10 16 0.00 0.00
7:59 pm 19:59 Mostly Cloudy 66 18.9 53 11.7 63 63 SW 3 6 30.02 1017 10 16 0.00 0.00
8:59 pm 20:59 Mostly Cloudy 65 18.3 54 12.2 68 68 SSW 5 7 30.02 1017 10 16 0.00 0.00
9:59 pm 21:59 Mostly Cloudy 65 18.3 54 12.2 68 68 WSW 3 6 30.04 1017 10 16 0.00 0.00
10:59 pm 22:59 Mostly Cloudy 65 18.3 55 12.8 70 70 WSW 5 7 30.03 1017 10 16 0.00 0.00
11:59 pm 23:59 Mostly Cloudy 64 17.8 55 12.8 73 73 WSW 3 6 30.03 1017 10 16 0.00 0.00

Powered by AerisWeather